sat.trackr.live / text

‹ back to catalog

STARLINK-3226

NORAD 49740 · 2021-115S

PAYLOAD ACTIVE UNKNOWN

§ Identity

Operator
Country
US
Launch date
2021-12-02
Launch site
AFETR
Launch vehicle
Mass (kg)
RCS (m²)

Purposes: comms

External: N2YO · Heavens-Above · Gunter

§ Orbital elements

Epoch: 2026-09-10T02:43:50.987712Z

Period
94.01 min
Inclination
53.1616°
Eccentricity
0.0001181
Mean motion
15.31707023 rev/d
Perigee alt
469.9 km
Apogee alt
471.5 km
Semi-major
6,848.9 km
B*
7.9977e-6
RAAN
28.1145°
Arg perigee
82.3447°
Mean anomaly
277.7688°
Rev number
26,355

§ Raw data

STARLINK-32261 49740U 21115S   26253.11378458 -.00000117  00000+0  79977-5 0  99922 49740  53.1616  28.1145 0001181  82.3447 277.7688 15.31707023263553

JSON: /api/v1/satellites/49740 · /tle

For live sub-satellite position, see the globe view (requires WebGL).

§ Visibility from observer

Set your observer location to see the next 7 days of passes ≥ 10°. The values pass through the URL so the page stays shareable.

No JS? Fill the form by hand. The geolocation button needs JavaScript.